This demonstration page uses our WeatherBlox Daily Observations layout. Learn more.

Left ArrowRight Arrow

44.8408, -93.29828

Hourly Observations for March 9, 2020

Temp ( °F °C ) Dew Point ( °F °C ) Humidity (%) Winds ( mph kmh ) Pressure ( in mb ) Visibility ( mi km ) Precip ( " mm )
12:53 am 00:53 Mostly Cloudy 50 10 41 5 71 71 W 6 9 29.79 1009 10 16 0.00 0.00
1:53 am 01:53 Partly Cloudy 46 7.8 40 4.4 79 79 NW 7 11 29.82 1010 10 16 0.00 0.00
2:53 am 02:53 Mostly Clear 40 4.4 34 1.1 79 79 NW 16 26 29.87 1011 10 16 0.00 0.00
3:53 am 03:53 Mostly Clear 37 2.8 32 0 82 82 WNW 10 17 29.89 1012 10 16 0.00 0.00
4:07 am 04:07 Mostly Cloudy 37 2.8 32 0 82 82 WNW 13 20 29.93 1013 10 16 0.00 0.00
4:53 am 04:53 Cloudy 36 2.2 30 -1.1 79 79 WNW 15 24 29.93 1014 10 16 0.00 0.00
5:39 am 05:39 Mostly Cloudy 34 1.1 28 -2.2 79 79 NW 12 19 29.98 1015 10 16 0.00 0.00
5:53 am 05:53 Partly Cloudy 33 0.6 27 -2.8 78 78 WNW 9 15 29.96 1015 10 16 0.00 0.00
6:53 am 06:53 Cloudy 34 1.1 26 -3.3 73 73 NNW 14 22 29.97 1015 10 16 0.00 0.00
7:53 am 07:53 Cloudy 33 0.6 26 -3.3 75 75 NW 10 17 29.99 1016 10 16 0.00 0.00
8:37 am 08:37 Cloudy 33 0.6 25 -3.9 72 72 NW 13 20 30.03 1017 10 16 0.00 0.00
8:53 am 08:53 Cloudy 34 1.1 26 -3.3 73 73 NNW 10 17 30.00 1016 10 16 0.00 0.00
9:53 am 09:53 Cloudy 36 2.2 26 -3.3 67 67 NNW 9 15 30.02 1017 10 16 0.00 0.00
10:53 am 10:53 Cloudy 36 2.2 25 -3.9 64 64 N 12 19 30.02 1017 10 16 0.00 0.00
11:53 am 11:53 Cloudy 38 3.3 25 -3.9 60 60 N 13 20 30.02 1017 10 16 0.00 0.00
12:53 pm 12:53 Cloudy 39 3.9 26 -3.3 60 60 NNE 13 20 30.03 1017 10 16 0.00 0.00
1:53 pm 13:53 Cloudy 39 3.9 25 -3.9 57 57 NNE 12 19 30.01 1016 10 16 0.00 0.00
2:53 pm 14:53 Cloudy 39 3.9 26 -3.3 60 60 N 8 13 30.01 1016 10 16 0.00 0.00
3:53 pm 15:53 Mostly Cloudy 41 5 26 -3.3 55 55 N 10 17 30.00 1016 10 16 0.00 0.00
4:53 pm 16:53 Mostly Cloudy 41 5 25 -3.9 53 53 N 12 19 30.00 1016 10 16 0.00 0.00
5:53 pm 17:53 Cloudy 39 3.9 25 -3.9 57 57 NNE 15 24 30.04 1017 10 16 0.00 0.00
6:53 pm 18:53 Mostly Cloudy 37 2.8 24 -4.4 59 59 NNW 14 22 30.06 1018 10 16 0.00 0.00
7:00 pm 19:00 Partly Cloudy 37 2.8 23 -5 57 57 NNW 12 19 30.08 1018 10 16 0.00 0.00
7:53 pm 19:53 Mostly Cloudy 36 2.2 22 -5.6 57 57 N 10 17 30.08 1019 10 16 0.00 0.00
8:53 pm 20:53 Mostly Cloudy 35 1.7 22 -5.6 59 59 NNW 13 20 30.11 1020 10 16 0.00 0.00
9:53 pm 21:53 Mostly Cloudy 34 1.1 21 -6.1 59 59 NNW 7 11 30.13 1020 10 16 0.00 0.00
10:53 pm 22:53 Partly Cloudy 32 0 21 -6.1 64 64 NNW 8 13 30.15 1021 10 16 0.00 0.00
11:53 pm 23:53 Partly Cloudy 31 -0.6 19 -7.2 61 61 NNW 7 11 30.17 1022 10 16 0.00 0.00

Powered by AerisWeather